This is the latest recevied weather packets stored in our database for station/object IU1OLT-7. If no packets are shown the sender has not sent any weather packets the latest 10 day(s).
| Time | Temp. | Humidity | Pressure | Rain* | Wind** | Luminosity | Snow |
|---|---|---|---|---|---|---|---|
| 1777358182 | 19.44° C | 32% | 1019.1 hPa | - | - | - | - |
| 1777357282 | 17.22° C | 36% | 1019.2 hPa | - | - | - | - |
| 1777356382 | 17.78° C | 35% | 1019.2 hPa | - | - | - | - |
| 1777355482 | 15.56° C | 39% | 1019.1 hPa | - | - | - | - |
| 1777354582 | 15° C | 40% | 1019 hPa | - | - | - | - |
| 1777353682 | 15° C | 39% | 1018.9 hPa | - | - | - | - |
| 1777352782 | 14.44° C | 41% | 1018.9 hPa | - | - | - | - |
| 1777351882 | 13.89° C | 42% | 1018.8 hPa | - | - | - | - |
| 1777350982 | 13.89° C | 42% | 1018.7 hPa | - | - | - | - |
| 1777350082 | 13.89° C | 41% | 1018.7 hPa | - | - | - | - |
| 1777349182 | 13.89° C | 41% | 1018.7 hPa | - | - | - | - |
| 1777348279 | 13.89° C | 41% | 1018.7 hPa | - | - | - | - |
| 1777347379 | 14.44° C | 41% | 1018.8 hPa | - | - | - | - |
| 1777346479 | 13.89° C | 41% | 1018.8 hPa | - | - | - | - |
| 1777345579 | 14.44° C | 40% | 1018.9 hPa | - | - | - | - |
| 1777344678 | 14.44° C | 41% | 1019 hPa | - | - | - | - |
| 1777343778 | 13.89° C | 41% | 1019.1 hPa | - | - | - | - |
| 1777342878 | 13.89° C | 42% | 1019.2 hPa | - | - | - | - |
| 1777341077 | 13.89° C | 43% | 1019.4 hPa | - | - | - | - |
| 1777340177 | 13.89° C | 43% | 1019.5 hPa | - | - | - | - |
| 1777339277 | 13.89° C | 44% | 1019.6 hPa | - | - | - | - |
| 1777338377 | 13.89° C | 44% | 1019.8 hPa | - | - | - | - |
| 1777337476 | 14.44° C | 44% | 1019.9 hPa | - | - | - | - |
| 1777336576 | 14.44° C | 44% | 1019.9 hPa | - | - | - | - |
| 1777335676 | 13.89° C | 46% | 1020 hPa | - | - | - | - |
* Rain since midnight (hover to see other rain measurements)
** Current wind speed in m/s (hover to see current wind gust speed)